| time (UTC) | temp C | wind direction | speed KPH | gust KPH | rain 1hr cm | rain 24hr cm | rain mn cm | humidity % | barometer mb |
| 20260503194523 | 28 | 288 | 4.8 | 14.5 | 0.00 | 0.00 | 0.00 | 38 | 1011.0 |
| 20260503193032 | 27 | 304 | 4.8 | 14.5 | 0.00 | 0.00 | 0.00 | 39 | 1011.2 |
| 20260503191526 | 27 | 338 | 4.8 | 14.5 | 0.00 | 0.00 | 0.00 | 40 | 1011.3 |
| 20260503190013 | 26 | 347 | 6.4 | 16.1 | 0.00 | 0.00 | 0.00 | 42 | 1011.5 |
| 20260503184532 | 26 | 331 | 8.0 | 14.5 | 0.00 | 0.00 | 0.00 | 44 | 1011.6 |
| 20260503183024 | 26 | 277 | 6.4 | 12.9 | 0.00 | 0.00 | 0.00 | 46 | 1011.7 |
| 20260503181526 | 25 | 352 | 4.8 | 14.5 | 0.00 | 0.00 | 0.00 | 49 | 1011.7 |
| 20260503180031 | 25 | 334 | 6.4 | 12.9 | 0.00 | 0.00 | 0.00 | 52 | 1011.8 |
| 20260503174515 | 24 | 289 | 4.8 | 12.9 | 0.00 | 0.00 | 0.00 | 53 | 1012.0 |
| 20260503173039 | 23 | 296 | 4.8 | 14.5 | 0.00 | 0.00 | 0.00 | 56 | 1011.9 |
| 20260503171524 | 22 | 310 | 3.2 | 8.0 | 0.00 | 0.00 | 0.00 | 62 | 1012.1 |
| 20260503081513 | 11 | 221 | 0.0 | 3.2 | 0.00 | 0.00 | 0.00 | 91 | 1013.2 |
| 20260503071515 | 12 | 223 | 4.8 | 6.4 | 0.00 | 0.00 | 0.00 | 91 | 1013.1 |
| 20260503054525 | 15 | 205 | 1.6 | 3.2 | 0.00 | 0.00 | 0.00 | 84 | 1013.4 |
| 20260503053029 | 15 | 17 | 1.6 | 3.2 | 0.00 | 0.00 | 0.00 | 83 | 1013.4 |
| 20260503051517 | 15 | 38 | 3.2 | 4.8 | 0.00 | 0.00 | 0.00 | 83 | 1013.3 |
| 20260503050021 | 16 | 46 | 0.0 | 3.2 | 0.00 | 0.00 | 0.00 | 82 | 1013.1 |
| 20260503044512 | 16 | 92 | 1.6 | 6.4 | 0.00 | 0.00 | 0.00 | 82 | 1013.3 |
| 20260503043022 | 16 | 219 | 0.0 | 3.2 | 0.00 | 0.00 | 0.00 | 81 | 1013.0 |
| 20260503041522 | 16 | 240 | 3.2 | 6.4 | 0.00 | 0.00 | 0.00 | 78 | 1012.8 |
| 20260503040021 | 17 | 279 | 1.6 | 3.2 | 0.00 | 0.00 | 0.00 | 77 | 1012.8 |
| 20260503034527 | 17 | 296 | 0.0 | 3.2 | 0.00 | 0.00 | 0.00 | 76 | 1012.7 |
| 20260503033018 | 17 | 238 | 1.6 | 8.0 | 0.00 | 0.00 | 0.00 | 76 | 1012.7 |
| 20260503031521 | 17 | 257 | 1.6 | 9.7 | 0.00 | 0.00 | 0.00 | 76 | 1012.5 |
| 20260503030022 | 17 | 255 | 6.4 | 11.3 | 0.00 | 0.00 | 0.00 | 77 | 1012.7 |
| 20260503024520 | 18 | 245 | 3.2 | 6.4 | 0.00 | 0.00 | 0.00 | 75 | 1013.1 |
| 20260503023014 | 18 | 190 | 0.0 | 4.8 | 0.00 | 0.00 | 0.00 | 72 | 1013.5 |
| 20260503021517 | 18 | 44 | 3.2 | 16.1 | 0.00 | 0.00 | 0.00 | 71 | 1013.7 |
| 20260503020022 | 18 | 32 | 4.8 | 9.7 | 0.00 | 0.00 | 0.00 | 70 | 1013.5 |
| 20260503014522 | 19 | 74 | 0.0 | 4.8 | 0.00 | 0.00 | 0.00 | 69 | 1012.9 |
| 20260503013020 | 20 | 86 | 0.0 | 3.2 | 0.00 | 0.00 | 0.00 | 67 | 1012.6 |
| 20260503011520 | 20 | 155 | 1.6 | 6.4 | 0.00 | 0.00 | 0.00 | 67 | 1012.7 |
| 20260503010022 | 20 | 220 | 1.6 | 11.3 | 0.00 | 0.00 | 0.00 | 67 | 1012.7 |
| 20260503004521 | 20 | 57 | 1.6 | 6.4 | 0.00 | 0.00 | 0.00 | 62 | 1012.5 |
| 20260503003024 | 20 | 57 | 1.6 | 4.8 | 0.00 | 0.00 | 0.00 | 62 | 1012.3 |
| 20260503001524 | 20 | 327 | 1.6 | 4.8 | 0.00 | 0.00 | 0.00 | 63 | 1012.2 |
| 20260503000018 | 20 | 295 | 1.6 | 4.8 | 0.00 | 0.00 | 0.00 | 63 | 1012.4 |
| 20260502234524 | 19 | 304 | 1.6 | 9.7 | 0.00 | 0.00 | 0.00 | 64 | 1012.4 |
| 20260502233023 | 19 | 322 | 1.6 | 6.4 | 0.00 | 0.00 | 0.00 | 64 | 1012.7 |
| 20260502231526 | 19 | 16 | 3.2 | 6.4 | 0.00 | 0.00 | 0.00 | 64 | 1013.1 |
| 20260502230018 | 19 | 344 | 4.8 | 9.7 | 0.00 | 0.00 | 0.00 | 64 | 1013.3 |
| 20260502224524 | 19 | 352 | 3.2 | 8.0 | 0.00 | 0.00 | 0.00 | 66 | 1013.4 |
| 20260502223008 | 19 | 333 | 4.8 | 9.7 | 0.00 | 0.00 | 0.00 | 66 | 1013.6 |
| 20260502221511 | 18 | 342 | 1.6 | 11.3 | 0.00 | 0.00 | 0.00 | 66 | 1013.9 |
| 20260502220019 | 18 | 36 | 4.8 | 16.1 | 0.00 | 0.00 | 0.00 | 66 | 1013.9 |
| 20260502214528 | 18 | 31 | 4.8 | 14.5 | 0.00 | 0.00 | 0.00 | 68 | 1014.1 |
| 20260502213006 | 17 | 352 | 3.2 | 9.7 | 0.00 | 0.00 | 0.00 | 70 | 1014.3 |
| 20260502211520 | 17 | 324 | 1.6 | 9.7 | 0.00 | 0.00 | 0.00 | 68 | 1014.4 |
| 20260502210016 | 17 | 136 | 1.6 | 9.7 | 0.00 | 0.00 | 0.00 | 69 | 1014.5 |
| 20260502204519 | 17 | 40 | 1.6 | 9.7 | 0.00 | 0.00 | 0.00 | 69 | 1014.7 |
| 20260502203026 | 17 | 19 | 3.2 | 8.0 | 0.00 | 0.00 | 0.00 | 67 | 1015.0 |
| 20260502201510 | 16 | 225 | 1.6 | 6.4 | 0.00 | 0.00 | 0.00 | 68 | 1015.3 |
| 20260502200012 | 16 | 9 | 1.6 | 4.8 | 0.00 | 0.00 | 0.00 | 68 | 1015.6 |